Location: Lane
(33.5226°N, 79.8788°W)
Time: 23:43:45
(UTC+00:00)

Courier 1B Rocket - Pass Details

Date: 06 October 2022
Orbit: 920 x 1202 km, 28.2° (Epoch: 09 December)

Event Time Altitude Azimuth Distance (km) Brightness Sun altitude
Rises 23:27:50 0° 251° (WSW) 3,890 9.9 -7.2°
Reaches altitude 10° 23:30:44 10° 247° (WSW) 2,890 8.8 -7.8°
Maximum altitude 23:37:30 52° 173° (S) 1,238 5.5 -9.2°
Enters shadow 23:43:18 13° 100° (E) 2,525 6.5 -10.4°
